轨道通信卫星FM33星 (ORBCOMM FM33)

导读

ORBCOMM FM 33是由ORBCOMM公司发射的低轨通信卫星,于1999年12月4日发射升空,属于ORBCOMM星座的一部分。该卫星主要提供全球机器对机器(M2M)通信服务,支持资产跟踪、海上和陆上远程监测等应用,依托低轨星座组网实现广域覆盖,为物联网领域提供了早期的卫星通信解决方案,是低轨小卫星通信商业化应用的早期实践案例之一。

Basic Information
目录编号:
25983
目录名称:
ORBCOMM FM 33
国际标识:
1999-065D
轨道中心:
EARTH
卫星名称:
轨道通信卫星FM33星
卫星全名:
轨道通信卫星FM33星 (ORBCOMM FM33)
卫星状态:
在轨 (已飞行9732 天)
发射日期:
1999-12-04 UTC
国别 :
(ORB)
星等 :
--
Orbit Information
数据来源 国际轨道数据 AOE轨道数据
星历时间 2026-07-27T18:41:21+0800
12小时前
查看轨道信息
2026-07-26T08:00:00+0800
1天前
查看轨道信息
半长轴 7133.211km 7133.212km
偏心率 0.0010534 0.0010679
轨道倾角 45.027° 45.026°
近地点辐角 294.708° 288.191°
升交点赤经 230.480° 237.364°
平近点角 65.267° 126.273°
近地点 747.559km 747.457km
远地点 762.589km 762.693km
周期 99.928分钟 99.928分钟
每日圈数 14.410371 14.41037
Detailed Information
固有亮度:
8
最大亮度:
7.5
平衡模式:
三轴稳定
覆盖范围:
全球
运营商:
轨道通信公司
运营商所在国:
美国
制造商(研发单位):
轨道ATK公司
制造商所在国:
美国
使用方式:
暂无
Satellite Introduction
轨道通信FM(Orbcomm FM)是一系列低地球轨道通信卫星,由美国卫星通信公司 Orbcomm运营。 截至2015年12月,已有63颗此类卫星绕地球运行。该卫星已退役。
2D Orbit Map
3D Orbit Map
Orbit Altitude Analysis Chart
Orbit Inclination Analysis Chart
Orbit Comprehensive Analysis Chart
View Comprehensive Chart